Location: Newark
(47.5008°N, 9.7480°E)
Time: 09:24:23
(UTC+00:00)

ISS - Pass Details

Date: 27 July 2019
Orbit: 410 x 420 km, 51.6° (Epoch: 21 August)

Event Time Altitude Azimuth Distance (km) Brightness Sun altitude
Rises 21:26:57 0° 294° (WNW) 2,372 1.0 -18.1°
Reaches altitude 10° 21:29:03 10° 295° (WNW) 1,504 -0.2 -18.3°
Maximum altitude 21:32:26 82° 24° (NNE) 427 -3.8 -18.5°
Enters shadow 21:33:00 59° 100° (E) 489 -3.7 -18.6°
